Regional Weather Roundup
Issued by NWS

Home | Current Version | Previous Version | Graphics & Text | Print | Product List | Glossary On
Versions: 1 2 3 4 5 6 7 8 9 10 11 12 13 14 15 16 17 18 19 20 21 22 23 24 25 26 27 28 29 30 31 32 33 34 35 36 37 38 39 40 41 42 43 44 45 46 47 48 49 50
000
ASUS43 KMKX 191411
RWRWI

WISCONSIN REGIONAL WEATHER ROUNDUP
NATIONAL WEATHER SERVICE MILWAUKEE/SULLIVAN WI
900 AM CDT THU OCT 19 2017

NOTE: "FAIR" INDICATES FEW OR NO CLOUDS BELOW 12,000 FEET WITH NO
SIGNIFICANT WEATHER AND/OR OBSTRUCTIONS TO VISIBILITY.

WIZ001-002-006>008-014>016-023>028-191500-
NORTHWEST WISCONSIN

CITY           SKY/WX    TMP DP  RH WIND       PRES   REMARKS
SUPERIOR ARPT  CLOUDY    45  30  57 SW8       30.01R
ASHLAND        PTSUNNY   48  27  44 SW10      30.02R
HAYWARD        CLOUDY    42  33  70 CALM      30.05R
SIREN          CLOUDY    45  32  61 S3        30.05R
CUMBERLAND     CLOUDY    39  34  81 S3        30.07R
RICE LAKE      CLOUDY    41  37  84 CALM      30.09R
CHETEK         CLOUDY    43  36  75 SE3       30.08R
LADYSMITH      CLOUDY    42  34  72 SW3       30.09R
EAU CLAIRE     CLOUDY    43  39  86 CALM      30.09R
MENOMONIE      CLOUDY    42  37  81 NE5       30.08S
NEW RICHMOND   CLOUDY    42  35  75 CALM      30.07R
OSCEOLA        CLOUDY    42  37  82 CALM      30.09R
$$

WIZ003>005-009-010-017-018-191500-
NORTH CENTRAL WISCONSIN

CITY           SKY/WX    TMP DP  RH WIND       PRES   REMARKS
MANITOWISH WTR CLOUDY    46  27  47 W8        30.03R
ARBOR VITAE    CLOUDY    45  28  50 W6        30.03R
WOODRUFF       CLOUDY    45  28  50 W6        30.03R
RHINELANDER    CLOUDY    47  28  47 W12       30.05R
EAGLE RIVER    MOSUNNY   46  24  42 W10G17    30.02R
LAND O LAKES   CLOUDY    47  24  39 W8        30.02R
PHILLIPS       CLOUDY    45  28  52 W5        30.05R
TOMAHAWK       CLOUDY    45  27  48 W5        30.06R
MEDFORD        MOSUNNY   44  29  57 SW3       30.08R
MERRILL        MOSUNNY   46  30  53 W6        30.07R
$$

WIZ029-030-035-036-043>047-191500-
CENTRAL WISCONSIN

CITY           SKY/WX    TMP DP  RH WIND       PRES   REMARKS
WAUSAU         MOSUNNY   46  31  55 CALM      30.07R
MOSINEE        MOSUNNY   45  32  61 SW5       30.10R
MARSHFIELD     MOSUNNY   45  32  60 SW5       30.09R
STEVENS POINT  MOSUNNY   47  28  47 SW6       30.11R
WAUPACA        CLOUDY    50  32  48 W3        30.11R
WAUTOMA        MOSUNNY   47  32  56 S3        30.13R
WISC RAPIDS    PTSUNNY   46  35  65 CALM      30.12R
CAMP DOUGLAS   PTSUNNY   46  36  66 SE3       30.12R
$$

WIZ011>013-019>022-031-037>040-048>050-191500-
NORTHEAST WISCONSIN

CITY           SKY/WX    TMP DP  RH WIND       PRES   REMARKS
ANTIGO         CLOUDY    44  29  55 W7        30.06R
SHAWANO        CLOUDY    48  31  52 SW3       30.08R
OCONTO         CLOUDY    48  31  50 W7        30.07R
STURGEON BAY   CLOUDY    53  33  46 W13       30.07R
GREEN BAY      MOSUNNY   50  33  52 W8        30.09R
MANITOWOC      MOSUNNY   52  32  46 W9        30.10R
APPLETON       MOSUNNY   48  27  43 W9        30.09R
CLINTONVILLE   CLOUDY    50  28  43 W6        30.09R
OSHKOSH        CLOUDY    51  31  46 W6        30.11R
$$

WIZ032>034-041-042-053>061-191500-
SOUTHWEST WISCONSIN

CITY           SKY/WX    TMP DP  RH WIND       PRES   REMARKS
LA CROSSE      CLOUDY    49  40  71 S6        30.13R
SPARTA         MOSUNNY   39  36  88 CALM      30.14R
VIROQUA        CLOUDY    50  33  50 SW6       30.13R
BOSCOBEL       CLOUDY    44  40  85 CALM      30.16R
PRAIRIE DU CHI SUNNY     46  39  76 CALM      30.15R
PLATTEVILLE    CLOUDY    51  42  71 CALM      30.15R
$$

WIZ056-057-062-063-064-067-068-191500-
SOUTH CENTRAL WISCONSIN

CITY           SKY/WX    TMP DP  RH WIND       PRES   REMARKS
REEDSBURG      SUNNY     47  37  67 CALM      30.14R
BARABOO/DELLS  SUNNY     52  32  46 SW3       30.14R
LONE ROCK      CLOUDY    45  42  89 CALM      30.15R
MINERAL POINT  CLOUDY    52  39  62 CALM      30.15R
MADISON        PTSUNNY   50  41  71 CALM      30.14R
MIDDLETON      SUNNY     50  42  73 CALM      30.15R
WATERTOWN      MOSUNNY   49  38  65 CALM      30.14R
MONROE         CLOUDY    55  28  35 CALM      30.15R
JANESVILLE     SUNNY     48  48 100 CALM      30.15R
$$

WIZ051-052-058>065-066-070>072-191500-
SOUTHEAST WISCONSIN

CITY           SKY/WX    TMP DP  RH WIND       PRES   REMARKS
MILWAUKEE      CLOUDY    56  29  35 NW7       30.14R
WAUKESHA       SUNNY     52  34  50 W6        30.15R
MILWAUKEE/TIMM SUNNY     54  27  35 W5        30.14R
RACINE         SUNNY     55  34  45 W7        30.16R
BURLINGTON     CLOUDY    52  39  61 CALM      30.15R
KENOSHA        CLOUDY    54  38  54 W5        30.15R
FOND DU LAC    CLOUDY    50  30  46 SW8       30.13R
SHEBOYGAN      MOSUNNY   51  35  54 W5        30.12R
WEST BEND      MOSUNNY   52  27  37 W7        30.13R
JUNEAU         CLOUDY    47  36  66 CALM      30.15R
$$

LSZ147-162-191500-
LAKE SUPERIOR

STATION/POSITION TIME  TEMP    WIND        PRES    WAVE
                       AIR SEA DIR/SP/G            HT/PER
                 (UTC) (F)     (DEG/KT/KT) (MB)    (FT/S)
W MID LAKE BUOY  1350   52 52              1012.8R   7/ 6
DEVILS ISLAND    1400   52     250/ 21/ 25 1015.1R
SAXON HARBOR     1330   51     210/  9/ 15 1015.6R
$$

LMZ867-665-643>646-191500-
LAKE MICHIGAN

STATION/POSITION TIME  TEMP    WIND        PRES    WAVE
                       AIR SEA DIR/SP/G            HT/PER
                 (UTC) (F)     (DEG/KT/KT) (MB)    (FT/S)
S GREEN BAY BUOY 1400   52 58  260/ 17/ 21 1017.9
N MID LAKE BUOY  1350   56 58  250/ 23/ 27 1015.9R   4/ 7
NORTHPORT PIER   1340   55     270/  4/ 12 1016.6R
KEWAUNEE LAKESHO 1342   51     280/  5/ 10 1017.7R
SHEBOYGAN LAKESH 1400   53     260/ 10/ 11 1019.6R
PORT WASHINGTON  1330   54     270/  4/  7 1021.0R
MILWAUKEE LAKESH 1350   55     300/  4/  6   N/A
S MID LAKE BUOY  1350   59 60  340/ 12/ 14 1020.5R   3/ 4
KENOSHA   LAKESH 1400   56     290/  9/ 11 1020.7
$$

TC  - TEMPERATURE IN CELSIUS
VSB - VISIBILITY IN STATUTE MILES
WCI - WIND CHILL INDEX
HX  - HEAT INDEX




USA.gov is the U.S. government's official web portal to all federal, state and local government web resources and services.